* Astronomy

Members Login
Username 
 
Password 
    Remember Me  
Post Info TOPIC: Asteroid 2016 CA138


L

Posts: 131433
Date:
RE: Asteroid 2016 CA138
Permalink  
 


Asteroid 2016 CA138 makes a close approach to the Earth (0.056 AU) at 08:17 UT, 18th February 2018.



__________________


L

Posts: 131433
Date:
Permalink  
 

Orbital elements:
2016 CA138                                               Earth MOID = 0.0508 AU
Epoch 2016 Jan. 13.0 TT = JDT 2457400.5                 MPC
M 181.96013              (2000.0)            P               Q
n   0.98235372     Peri.  327.47264     +0.47805572     +0.84479925
a   1.0022070      Node   329.01654     -0.67235958     +0.17589383
e   0.0469082      Incl.   27.83484     -0.56515072     +0.50534699
P   1.00           H   23.1           G   0.15           U   8

MPEC 2016 - C136



__________________
Page 1 of 1  sorted by
 
Quick Reply

Please log in to post quick replies.



Create your own FREE Forum
Report Abuse
Powered by ActiveBoard